Location: Unspecified
(0.0000°N, 0.0000°E)
Time: 21:50:13
(UTC+02:00)

ATLAS V CENTAUR R/B - Visible Passes

Search period start: 28 April 2015 00:00
Search period end: 08 May 2015 00:00
Orbit: 224 x 29638 km, 18.0° (Epoch: 27 April)

Date Brightness Start Highest point End Pass type
(mag) Time Alt. Az. Time Alt. Az. Time Alt. Az.
28 Apr 8.9 20:48:22 10° W 21:25:20 74° N 04:43:21 10° E visible
29 Apr 8.0 22:46:14 10° W 06:20:23 85° NNE 06:37:47 10° ESE visible
30 Apr 5.7 15:33:55 10° SSW 15:37:33 26° SE 15:50:59 10° E visible
01 May 6.5 00:55:47 10° WNW 08:21:23 67° SSW 08:29:10 10° SE visible
01 May 6.6 17:23:32 10° WSW 17:30:41 71° SSE 00:54:37 10° E visible
02 May 5.8 09:58:57 10° W 10:14:31 26° SW 10:18:30 10° SSE visible
02 May 8.2 19:14:11 10° WSW 19:30:05 82° NNW 03:04:44 10° E visible
03 May 8.7 21:06:42 10° W 22:04:47 70° N 05:00:55 10° E visible
04 May 7.6 23:03:54 10° W 06:37:47 88° SSW 06:52:06 10° ESE visible
05 May 5.8 15:46:41 10° SW 15:50:54 38° SE 16:13:32 10° E visible
06 May 6.3 01:16:27 10° WNW 08:33:45 56° SSW 08:40:43 10° SE visible
06 May 7.0 17:34:21 10° WSW 17:42:27 82° SSE 01:11:01 10° E visible
07 May 5.7 10:15:00 10° WSW 10:23:59 18° SW 10:27:14 10° S visible
